Regional Weather Roundup
Issued by NWS

Home | Current Version | Previous Version | Graphics & Text | Print | Product List | Glossary On
Versions: 1 2 3 4 5 6 7 8 9 10 11 12 13 14 15 16 17 18 19 20 21 22 23 24 25 26 27 28 29 30 31 32 33 34 35 36 37 38 39 40 41 42 43 44 45 46 47 48 49 50
000
ASUS43 KMKX 252311
RWRWI

WISCONSIN REGIONAL WEATHER ROUNDUP
NATIONAL WEATHER SERVICE MILWAUKEE/SULLIVAN WI
600 PM CDT FRI JUL 25 2014

NOTE: "FAIR" INDICATES FEW OR NO CLOUDS BELOW 12,000 FEET WITH NO
SIGNIFICANT WEATHER AND/OR OBSTRUCTIONS TO VISIBILITY.

WIZ001-002-006>008-014>016-023>028-260000-
NORTHWEST WISCONSIN

CITY           SKY/WX    TMP DP  RH WIND       PRES   REMARKS
SUPERIOR ARPT  CLOUDY    64  60  86 NE3       29.78F
ASHLAND        CLOUDY    70  64  81 SW9       29.82S
HAYWARD        LGT RAIN  67  66  97 S6        29.84R FOG
SIREN          CLOUDY    72  68  88 SE7       29.80S
RICE LAKE      CLOUDY    71  64  80 SE6       29.84R
LADYSMITH      CLOUDY    69  64  84 S5        29.87S
EAU CLAIRE     CLOUDY    75  67  76 SE7       29.82S
MENOMONIE      CLOUDY    75  67  77 SE9       29.82S
NEW RICHMOND   CLOUDY    76  67  74 SE5       29.80S
OSCEOLA        CLOUDY    75  71  85 SE5       29.81F
$$

WIZ003>005-009-010-017-018-260000-
NORTH CENTRAL WISCONSIN

CITY           SKY/WX    TMP DP  RH WIND       PRES   REMARKS
WOODRUFF       CLOUDY    69  64  83 S8        29.87R
RHINELANDER    CLOUDY    66  61  84 SW10      29.89R
EAGLE RIVER      N/A     66  59  78 SW7       29.87R
LAND O LAKES   CLOUDY    68  62  79 SW7       29.87S
PHILLIPS       CLOUDY    66  63  91 S5        29.87S
TOMAHAWK       CLOUDY    65  61  87 CALM      29.89R
MEDFORD        CLOUDY    67  62  85 S8        29.88S
MERRILL        CLOUDY    67  63  87 SW8       29.88S
$$

WIZ029-030-035-036-043>047-260000-
CENTRAL WISCONSIN

CITY           SKY/WX    TMP DP  RH WIND       PRES   REMARKS
WAUSAU         CLOUDY    67  62  84 SW8       29.87S
MOSINEE        CLOUDY    66  63  88 S8        29.89F
MARSHFIELD     CLOUDY    70  63  78 S9        29.88S
STEVENS POINT  CLOUDY    67  60  78 SW3       29.89F
WAUPACA        CLOUDY    72  61  67 SW8       29.89F
WAUTOMA        CLOUDY    72  62  70 SW8       29.90S
WISC RAPIDS    PTSUNNY   72  62  71 SW7       29.89F
CAMP DOUGLAS   CLOUDY    73  65  77 SE7       29.87F
$$

WIZ011>013-019>022-031-037>040-048>050-260000-
NORTHEAST WISCONSIN

CITY           SKY/WX    TMP DP  RH WIND       PRES   REMARKS
ANTIGO         CLOUDY    64  61  89 SW7       29.90S
STURGEON BAY   CLOUDY    68  57  68 S7        29.88F
GREEN BAY      CLOUDY    72  61  68 SW9       29.88F
MANITOWOC      CLOUDY    68  60  75 S13       29.90S
APPLETON       PTSUNNY   72  57  60 SW12      29.89F
CLINTONVILLE   CLOUDY    70  59  68 SW8       29.87F
OSHKOSH        PTSUNNY   72  61  68 SW12      29.89S
$$

WIZ032>034-041-042-053>061-260000-
SOUTHWEST WISCONSIN

CITY           SKY/WX    TMP DP  RH WIND       PRES   REMARKS
LA CROSSE      PTSUNNY   78  64  61 S12       29.83F HX  80
SPARTA         MOSUNNY   75  62  63 SE8       29.86F
VIROQUA        CLOUDY    71  64  77 SE7       29.88S
BOSCOBEL       CLOUDY    75  63  66 VRB5      29.87F
PRAIRIE DU CHI CLOUDY    73  63  68 E8        29.86R
PLATTEVILLE    CLOUDY    70  64  80 SE10      29.90F
$$

WIZ056-057-062-063-064-067-068-260000-
SOUTH CENTRAL WISCONSIN

CITY           SKY/WX    TMP DP  RH WIND       PRES   REMARKS
BARABOO/DELLS  CLOUDY    71  60  69 S6        29.89F
LONE ROCK      CLOUDY    74  63  68 SE9       29.89F
WATERTOWN      CLOUDY    71  61  72 S9        29.90F
MADISON        CLOUDY    71  61  70 S10       29.90F
MIDDLETON      CLOUDY    71  60  68 S7        29.91F
MONROE         CLOUDY    68  61  77 S9        29.92S
JANESVILLE     CLOUDY    72  59  64 S7        29.91F
$$

WIZ051-052-058>065-066-070>072-260000-
SOUTHEAST WISCONSIN

CITY           SKY/WX    TMP DP  RH WIND       PRES   REMARKS
MILWAUKEE      PTSUNNY   73  58  59 SW10      29.91F
WAUKESHA       PTSUNNY   72  57  60 SW9       29.93F
MILWAUKEE/TIMM PTSUNNY   73  57  56 S8        29.91F
RACINE         CLOUDY    73  58  59 SW8       29.93F
BURLINGTON     PTSUNNY   71  59  67 SW8       29.92F
KENOSHA        PTSUNNY   75  60  59 SW8       29.92F
FOND DU LAC    PTSUNNY   73  59  61 SW13G18   29.89F
SHEBOYGAN      PTSUNNY   74  60  61 S13       29.90F
WEST BEND      PTSUNNY   72  59  64 SW6       29.90F
JUNEAU         CLOUDY    70  53  54 S10       29.92S
$$

LSZ147-162-260000-
LAKE SUPERIOR

STATION/POSITION TIME  TEMP    WIND        PRES    WAVE
                       AIR SEA DIR/SP/G            HT/PER
                 (UTC) (F)     (DEG/KT/KT) (MB)    (FT/S)
W MID LAKE BUOY  2250   58 51   CALM  /  2 1008.8S   0
PORT WING        2200   70     200/  5/  9 1009.1S
SAXON HARBOR     2240          190/  8/ 12 1009.5S
$$

LMZ867-665-643>646-260000-
LAKE MICHIGAN

STATION/POSITION TIME  TEMP    WIND        PRES    WAVE
                       AIR SEA DIR/SP/G            HT/PER
                 (UTC) (F)     (DEG/KT/KT) (MB)    (FT/S)
N MID LAKE BUOY  2250   59 55  200/ 16/ 17 1011.2F   3/ 4
NORTHPORT PIER   2200   67     170/  6/ 11 1011.9S
KEWAUNEE LAKESHO 2200   56     180/ 14/ 15 1013.1F
SHEBOYGAN LAKESH 2300   62     170/ 13/ 14 1012.5F
PORT WASHINGTON  2200   67     180/  6/  8 1013.5F
ATWATER BUOY     2300   63     130/  8     1013.6F
MILWAUKEE LAKESH 2200   67     130/  5/  6   N/A
S MID LAKE BUOY  2250   65 62  170/  8/ 10 1013.6F   1/ 4
KENOSHA   LAKESH 2300   74     240/  9/ 12 1012.9F
$$

TC  - TEMPERATURE IN CELSIUS
VSB - VISIBILITY IN STATUTE MILES
WCI - WIND CHILL INDEX
HX  - HEAT INDEX




USA.gov is the U.S. government's official web portal to all federal, state and local government web resources and services.